User: anonymous   Login
Location: Unspecified
(0.0000°N, 0.0000°E)
Time: 06:58:16
(UTC+00:00)
Language:

CUBESAT XI-V - Orbit

View from above orbital plane
View from above orbital plane
View from above satellite
View from above satellite

Ground track
Ground track

The orbit data is extracted from the following two-line orbital elements,

1 28895U 05043F   17202.90787266 +.00000120 +00000-0 +31932-4 0  9996
2 28895 097.8684 003.6053 0017668 037.9934 322.2511 14.63412557625339
Epoch (UTC): 21 July 2017 21:47:20
Eccentricity: 0.0017668
inclination: 97.8684°
perigee height: 670 km
apogee height: 694 km
right ascension of ascending node: 3.6053°
argument of perigee: 37.9934°
revolutions per day: 14.63412557
mean anomaly at epoch: 322.2511°
orbit number at epoch: 62533

The dashed part of the orbit path shows where the satellite is in the earth's shadow,  

DLR